K7AKT Weather Reports


time (UTC)temp
C
wind
direction
speed
KPH
gust
KPH
rain 1hr
cm
rain 24hr
cm
rain mn
cm
humidity
%
barometer
mb
20260504235018 22 293 9.7 20.9 0.00 0.00 0.00 35 1008.2
20260504234018 22 315 14.5 29.0 0.00 0.00 0.00 39 1008.7
20260504233018 22 315 11.3 29.0 0.00 0.00 0.00 40 1008.8
20260504232018 22 315 11.3 20.9 0.00 0.00 0.00 36 1009.0
20260504231038 22 315 9.7 19.3 0.00 0.00 0.00 36 1009.1
20260504230019 22 315 11.3 30.6 0.00 0.00 0.00 36 1009.0
20260504225018 22 338 12.9 30.6 0.00 0.00 0.00 33 1009.3
20260504224038 23 315 11.3 27.4 0.00 0.00 0.00 33 1009.7
20260504223018 22 293 12.9 24.1 0.00 0.00 0.00 33 1009.4
20260504222018 23 293 9.7 25.7 0.00 0.00 0.00 32 1010.1
20260504221018 23 315 12.9 33.8 0.00 0.00 0.00 35 1010.1
20260504220018 23 315 12.9 43.5 0.00 0.00 0.00 33 1010.4
20260504215018 24 23 6.4 16.1 0.00 0.00 0.00 26 1010.8
20260504214018 24 45 4.8 16.1 0.00 0.00 0.00 25 1010.7
20260504213018 24 45 6.4 16.1 0.00 0.00 0.00 27 1010.8
20260504212018 23 45 4.8 14.5 0.00 0.00 0.00 27 1010.9
20260504211018 23 23 3.2 8.0 0.00 0.00 0.00 27 1011.0
20260504210039 23 0 6.4 22.5 0.00 0.00 0.00 26 1011.0
20260504205038 23 0 4.8 14.5 0.00 0.00 0.00 28 1011.5
20260504204038 24 315 6.4 16.1 0.00 0.00 0.00 30 1012.0
20260504203038 24 45 6.4 14.5 0.00 0.00 0.00 26 1011.8
20260504202038 23 68 4.8 16.1 0.00 0.00 0.00 26 1012.1
20260504201018 22 68 3.2 11.3 0.00 0.00 0.00 28 1012.0
20260504200038 22 270 9.7 27.4 0.00 0.00 0.00 31 1012.1
20260504195038 22 270 8.0 16.1 0.00 0.00 0.00 31 1012.6
20260504194018 22 293 9.7 20.9 0.00 0.00 0.00 31 1012.7
20260504193018 21 293 8.0 16.1 0.00 0.00 0.00 32 1012.8
20260504192038 22 293 4.8 11.3 0.00 0.00 0.00 31 1012.7
20260504191018 21 293 8.0 14.5 0.00 0.00 0.00 34 1013.0
20260504190018 21 293 9.7 17.7 0.00 0.00 0.00 34 1013.0
20260504185018 22 0 4.8 9.7 0.00 0.00 0.00 34 1013.1
20260504184018 22 293 3.2 11.3 0.00 0.00 0.00 36 1013.2
20260504183018 21 293 4.8 11.3 0.00 0.00 0.00 35 1013.3
20260504182018 21 203 3.2 12.9 0.00 0.00 0.00 34 1013.3
20260504181018 21 293 6.4 14.5 0.00 0.00 0.00 34 1013.1
20260504180018 21 315 4.8 11.3 0.00 0.00 0.00 36 1013.3
20260504175018 20 315 1.6 6.4 0.00 0.00 0.00 39 1013.3
20260504174038 20 315 4.8 14.5 0.00 0.00 0.00 40 1013.4
20260504173018 20 270 4.8 14.5 0.00 0.00 0.00 39 1013.4
20260504172018 19 293 6.4 12.9 0.00 0.00 0.00 40 1013.5
20260504171018 19 270 6.4 12.9 0.00 0.00 0.00 40 1013.5
20260504151018 10 180 1.6 4.8 0.00 0.00 0.00 82 1012.4